EHI
0 0 0 0 0 0 0 0 0 0 0 0 0 0 0 0 0 0 0 0 0 0 0 0 0 0 0 0 0 0 0 0 0 0 0 0 0 0 0 0 0 0 0
0 0 0 0 0 0 0 0 0 0 0 0 0 0 0 0 0 0 0 0 0 0 0 0 0 0 0 0 0 0 0 0 0 0 0 0 0 0 0 0 0 0 0
0 0 0 0 0 0 0 0 0 0 0 0 0 0 0 0 0 0 0 0 0 0 0 0 0 0 0 0 0 0 0 0 0 0 0 0 0 0 0 0 0 0 0
0 0 0 0 0 0 0 0 0 0 0 0 0 0 0 0 0 0 0 0 0 0 0 0 0 0 0 0 0 0 0 0 0 0 0 0 0 0 0 0 0 0 0
0 0 0 0 0 0 0 0 0 0 0 0 0 0 0 0 0 0 0 0 0 0 0 0 0 0 0 0 0 0 0 0 0 0 0 0 0 0 0 0 0 0 0
0 0 0 0 0 0 0 0 0 0 0 0 0 0 0 0 0 0 0 0 0 0 0 0 0 0 0 0 0 0 0 0 0 0 0 0 0 0 0 0 0 0 0
0 0 0 0 0 0 0 0 0 0 0 0 0 0 0 0 0 0 0 0 0 0 0 0 0 0 0 0 0 0 0 0 0 0 0 0 0 0 0 0 0 0 0
0 0 0 0 0 0 0 0 0 0 0 0 0 0 0 0 0 0 0 0 0 0 0 0 0 0 0 0 0 0 0 0 0 0 0 0 0 0 0 0 0 0 0
0 0 0 0 0 0 0 0 0 0 0 0 0 0 0 0 0 0 0 0 0 0 0 0 0 0 0 0 0 0 0 0 0 0 0 0 0 0 0 0 0 0 0
0 0 0 0 0 0 0 0 0 0 0 0 0 0 0 0 0 0 0 0 0 0 0 0 0 0 0 0 0 0 0 0 0 0 0 0 0 0 0 0 0 0 0
0 0 0 0 0 0 0 0 0 0 0 0 0 0 0 0 0 0 0 0 0 0 0 0 0 0 0 0 0 0 0 0 0 0 0 0 0 0 0 0 0 0 0
0 0 0 0 0 0 0 0 0 0 0 0 0 0 0 0 0 0 0 0 0 0 0 0 0 0 0 0 0 0 0 0 0 0 0 0 0 0 0 0 0 0 0
0 0 0 0 0 0 0 0 0 0 0 0 0 0 0 0 0 0 0 0 0 0 0 0 0 0 0 0 0 0 0 0 0 0 0 0 0 0 0 0 0 0 0
0 0 0 0 0 0 0 0 0 0 0 0 0 0 0 0 0 0 0 0 0 0 0 0 0 0 0 0 0 0 0 0 0 0 0 0 0 0 0 0 0 0 0
0 0 0 0 0 0 0 0 0 0 0 0 0 0 0 0 0 0 0 0 0 0 0 0 0 0 0 0 0 0 0 0 0 0 0 0 0 0 0 0 0 0 0
0 0 0 0 0 0 0 0 0 0 0 0 0 0 0 0 0 0 0 0 0 0 0 0 0 0 0 0 0 0 0 0 0 0 0 0 0 0 0 0 0 0 0
0 0 0 0 0 0 0 0 0 0 0 0 0 0 0 0 0 0 0 0 0 0 0 0 0 0 0 0 0 0 0 0 0 0 0 0 0 0 0 0 0 0 0
0 0 0 0 0 0 0 0 0 0 0 0 0 0 0 0 0 0 0 0 0 0 0 0 0 0 0 0 0 0 0 0 0 0 0 0 0 0 0 0 0 0 0
0 0 0 0 0 0 0 0 0 0 0 0 0 0 0 0 0 0 0 0 0 0 0 0 0 0 0 0 0 0 0 0 0 0 0 0 0 0 0 0 0 0 0
0 0 0 0 0 0 0 0 0 0 0 0 0 0 0 0 0 0 0 0 0 0 0 0 0 0 0 0 0 0 0 0 0 0 0 0 0 0 0 0 0 0 0
0 0 0 0 0 0 0 0 0 0 0 0 0 0 0 0 0 0 0 0 0 0 0 0 0 0 0 0 0 0 0 0 0 0 0 0 0 0 0 0 0 0 0
0 0 0 0 0 0 0 0 0 0 0 0 0 0 0 0 0 0 0 0 0 0 0 0 0 0 0 0 0 0 0 0 0 0 0 0 0 0 0 0 0 0 0
0 0 0 0 0 0 0 0 0 0 0 0 0 0 0 0 0 0 0 0 0 0 0 0 0 0 0 0 0 0 0 0 0 0 0 0 0 0 0 0 0 0 0
0 0 0 0 0 0 0 0 0 0 0 0 0 0 0 0 0 0 0 0 0 0 0 0 0 0 0 0 0 0 0 0 0 0 0 0 0 0 0 0 0 0 0
0 0 0 0 0 0 0 0 0 0 0 0 0 0 0 0 0 0 0 0 0 0 0 0 0 0 0 0 0 0 0 0 0 0 0 0 0 0 0 0 0 0 0
0 0 0 0 0 0 0 0 0 0 0 0 0 0 0 0 0 0 0 0 0 0 0 0 0 0 0 0 0 0 0 0 0 0 0 0 0 0 0 0 0 0 0
Wind_Speed
6 6 7 7 7 7 8 8 8 7 5 4 4 3 3 2 2 2 3 3 3 2 2 2 2 2 2 2 3 2 2 2 2 2 2 2 1 2 2 2 2 3 3
6 7 7 7 7 8 8 9 8 7 6 4 3 3 3 2 2 2 2 3 3 2 2 2 2 2 2 2 3 2 2 1 2 1 1 2 2 3 2 1 2 2 2
7 7 7 7 7 8 8 8 8 7 6 5 4 4 3 2 2 2 2 2 3 2 2 2 2 2 2 2 1 1 2 0 1 1 1 1 1 2 2 1 2 2 2
5 6 7 7 7 6 6 7 7 7 6 6 5 6 4 4 3 3 2 2 3 3 2 2 2 2 2 1 1 1 1 1 0 1 1 0 1 0 2 2 1 2 2
5 5 6 6 5 5 6 6 7 6 6 6 6 5 4 3 3 3 3 3 3 3 3 2 2 2 2 2 1 1 1 0 1 0 1 1 1 1 1 2 2 2 2
4 4 5 5 5 5 5 5 6 6 6 5 5 5 5 5 5 4 4 3 2 2 3 2 2 2 2 2 1 1 0 0 0 0 0 1 1 1 1 2 3 3 3
4 4 5 5 6 6 6 5 6 6 6 6 5 5 5 5 6 5 5 4 3 2 3 2 2 2 1 1 1 1 1 1 1 1 1 1 1 1 1 2 3 3 3
3 4 4 5 5 6 6 6 6 5 5 5 5 4 4 4 4 4 4 4 3 3 3 3 2 2 2 1 1 1 2 1 2 2 2 1 2 1 2 2 2 3 3
2 3 3 4 4 5 5 5 5 5 5 5 4 4 4 3 4 4 3 3 3 2 3 3 3 2 2 2 2 2 2 2 2 2 2 2 2 2 2 2 2 2 4
2 2 3 3 3 4 4 4 4 4 3 4 3 3 3 3 3 3 3 3 3 3 3 3 3 2 2 2 2 2 2 2 2 2 2 2 2 2 2 2 2 2 3
2 2 2 3 3 3 4 4 4 3 3 3 3 2 3 3 3 3 3 3 3 3 3 3 3 3 3 3 3 3 3 3 3 3 3 3 3 2 2 2 2 2 3
2 2 3 3 2 2 3 3 3 3 3 3 3 3 2 3 3 3 3 3 3 3 3 3 3 3 3 3 3 3 3 3 4 3 3 4 3 3 2 2 3 3 3
2 2 2 2 2 2 2 2 3 2 2 2 3 3 3 3 3 2 2 2 2 2 2 3 3 3 3 3 4 4 4 4 4 4 4 4 4 4 3 3 3 3 4
2 2 1 1 1 1 1 2 2 2 2 2 2 3 3 3 2 2 2 2 2 2 2 3 3 3 3 4 4 4 4 4 4 4 4 4 5 5 5 5 4 3 3
3 2 1 1 1 1 1 2 1 1 1 1 1 2 2 2 2 2 2 2 2 2 2 2 3 3 3 4 5 5 5 5 4 4 5 5 6 8 6 5 4 3 3
4 4 3 2 1 1 1 1 1 1 1 1 1 1 1 1 2 2 2 2 2 2 2 2 3 3 4 6 8 6 4 4 5 5 4 5 6 7 9 10 9 8 6
4 4 3 2 1 0 1 1 1 1 1 1 1 1 1 1 1 1 1 2 2 2 2 2 3 3 5 8 8 8 4 4 4 4 4 4 5 6 4 7 9 9 11
4 4 3 2 2 1 1 1 1 1 1 1 1 1 1 1 1 2 2 2 2 2 2 3 3 3 5 8 8 7 3 3 4 4 4 5 5 5 5 5 5 5 6
4 3 3 2 1 1 0 1 1 1 1 1 1 1 2 2 2 2 2 2 2 2 2 3 3 3 5 8 7 6 2 3 4 4 4 5 5 8 9 5 4 5 5
4 4 3 2 2 1 0 1 1 1 1 1 1 1 2 2 2 2 2 1 2 2 2 3 2 3 4 7 7 6 2 3 3 3 4 7 7 9 9 5 4 5 5
4 4 3 3 2 1 1 0 1 1 1 1 1 1 2 2 2 2 2 2 2 2 2 3 3 3 4 6 7 6 2 3 3 3 3 4 9 10 9 7 4 7 6
4 4 3 3 2 1 1 1 1 1 1 1 1 1 2 2 2 2 2 2 2 2 2 2 3 2 3 4 5 6 4 4 2 3 3 4 8 9 8 6 6 7 6
4 4 3 3 2 1 1 2 2 1 1 1 1 1 2 2 2 2 2 2 2 2 2 2 3 2 2 3 5 5 6 6 3 2 5 6 8 7 5 6 7 5 2
5 4 4 4 3 2 2 2 2 1 1 1 2 2 2 2 2 2 2 2 3 3 3 3 3 2 2 2 2 2 3 4 4 3 4 6 7 6 5 4 4 2 2
5 4 4 4 4 3 3 3 2 1 1 2 2 2 2 2 2 2 2 3 3 4 4 3 3 3 3 4 6 3 2 2 3 3 1 2 2 2 2 2 2 1 2
5 5 5 4 4 3 3 3 2 1 2 2 2 2 2 2 2 2 2 4 5 6 7 6 5 4 6 7 7 6 6 6 6 3 2 2 2 2 2 2 2 1 2
Wind_Direction
165 154 154 151 152 155 156 159 156 154 149 147 146 142 141 129 115 112 111 104 91 79 84 85 85 79 79 76 77 75 63 45 29 28 2 351 34 71 65 65 63 45 39
164 163 158 158 165 168 164 162 162 159 161 157 151 144 139 136 128 118 114 107 107 100 104 101 104 90 88 77 79 78 57 34 30 40 15 357 353 28 28 29 55 44 28
172 168 167 166 168 174 170 167 166 162 161 149 133 129 122 121 122 134 139 133 124 114 110 118 121 105 97 103 93 101 78 60 350 34 86 92 291 332 323 349 29 33 17
166 167 168 171 173 172 164 161 163 162 161 154 153 156 159 162 168 160 159 147 135 129 122 126 126 118 106 105 106 77 71 115 29 353 12 129 168 202 313 313 337 351 347
161 166 168 170 165 161 160 163 159 160 161 162 163 167 163 157 145 148 157 161 156 151 146 142 145 145 134 128 103 55 40 113 187 225 320 344 342 241 224 279 308 322 313
150 150 152 154 154 154 157 161 162 163 162 164 167 172 168 162 161 165 168 167 164 165 157 149 150 156 152 155 160 169 184 228 253 264 246 225 219 260 253 265 292 295 293
139 146 154 159 160 160 162 162 164 166 167 171 176 181 178 175 175 173 172 169 169 173 171 161 163 167 167 169 168 182 203 209 225 236 246 249 243 241 247 256 276 284 287
136 157 163 161 160 160 160 163 168 169 172 179 182 179 179 179 173 172 168 174 176 176 169 168 174 179 176 180 182 193 215 214 224 244 247 251 260 251 241 238 259 290 284
137 150 151 152 151 159 162 166 169 170 175 179 176 178 183 178 166 163 162 167 164 169 166 172 174 177 182 189 197 203 213 218 228 236 246 253 259 258 255 241 218 235 275
110 124 140 145 147 155 156 158 164 170 165 169 177 182 182 169 155 155 165 167 167 163 166 176 178 185 194 197 204 216 219 220 236 238 238 249 258 261 257 245 244 236 249
130 131 134 138 139 138 144 151 159 160 166 170 172 170 172 161 158 163 167 166 166 169 176 183 187 194 202 202 207 218 217 223 237 239 238 245 248 252 255 253 247 250 247
90 111 122 117 119 133 143 149 153 164 172 168 166 168 166 155 156 163 165 163 173 180 184 187 197 207 211 207 210 223 229 226 230 231 235 246 248 246 249 248 247 249 247
73 88 106 116 131 142 145 146 152 160 161 165 169 167 163 157 159 165 165 170 177 184 195 198 205 212 213 216 220 220 225 230 232 230 230 238 239 246 245 248 251 252 263
53 75 90 112 123 132 133 128 136 138 140 150 167 168 169 166 163 167 172 180 186 194 201 209 217 218 223 231 229 228 229 228 235 237 237 237 239 243 242 246 243 247 257
34 32 32 43 102 119 117 114 116 124 140 152 160 169 165 163 164 170 180 186 196 214 208 211 229 233 230 228 224 224 228 227 233 241 245 245 251 254 253 251 237 233 243
13 6 8 10 41 130 147 139 134 130 136 150 162 152 152 159 166 170 177 194 201 209 217 226 231 237 245 245 247 245 227 228 233 242 246 249 257 263 266 270 266 255 245
354 352 352 349 335 234 141 149 141 135 148 159 162 165 176 181 180 181 188 203 207 209 222 231 236 244 246 252 254 256 247 230 236 242 246 257 256 266 257 266 270 271 269
343 341 342 340 348 13 95 109 133 152 168 173 175 191 192 200 189 183 202 221 220 215 225 233 234 247 256 261 259 262 257 242 247 247 243 246 249 252 254 250 255 255 261
338 335 335 337 340 346 85 114 153 164 186 201 209 211 201 204 206 211 214 225 226 237 238 237 235 242 257 264 261 265 236 241 247 250 251 251 241 252 260 258 259 266 266
346 346 346 354 351 358 69 152 196 200 224 246 253 243 218 212 214 219 226 237 241 246 255 262 252 242 249 261 264 266 232 237 245 250 252 260 261 260 263 251 242 257 265
342 347 345 341 338 348 7 261 231 244 273 288 269 257 231 224 218 209 219 224 240 239 241 257 262 252 257 269 272 270 244 231 242 250 248 254 267 269 271 270 249 258 271
340 342 337 328 329 341 350 313 292 294 305 279 264 254 235 226 223 199 212 216 219 229 237 246 257 255 260 271 275 273 274 277 255 255 253 258 271 276 279 279 271 276 283
332 334 326 321 325 337 332 291 300 327 320 282 267 256 256 242 223 203 211 214 212 226 239 240 250 259 262 271 280 279 284 289 282 264 273 278 278 282 285 284 283 283 274
331 332 329 324 324 330 324 299 305 323 311 277 273 269 258 252 229 229 224 221 222 225 233 240 248 256 259 253 255 262 278 286 288 281 277 288 290 286 284 284 285 273 252
326 327 324 317 312 316 315 312 306 297 293 277 265 266 267 264 256 254 246 242 231 231 232 226 229 235 248 255 265 265 252 250 257 275 262 259 268 263 264 266 256 253 260
326 326 323 318 314 317 311 305 294 270 264 276 268 261 260 260 261 261 279 276 272 268 267 263 257 250 257 268 270 275 276 277 273 272 248 253 261 261 265 265 274 278 271